Погода в Сасыре

Россия / Республика Саха (Якутия)     65°09′43″N   147°04′56″E
темп.,
°C
ветер,
м/с
пор.,
м/с
влажн.,
%
обл.,
%
осадки,
мм/ч
давл.,
гПа
погр.,
м
1 марта, пн
пн123:00−32сз001009 0.0 102319
02:00−33с0010068 0.0 102319
05:00−33сз1110078 0.0 102219
08:00−35з1110087 0.0 102119
11:00−31з119888 0.0 102136
14:00−29зсз119472 0.0 1020175
17:00−30зсз119778 0.0 102019
20:00−35зсз0010054 0.0 102119
2 марта, вт
вт223:00−36ссз0110063 0.0 102119
02:00−37сз0010068 0.0 102219
05:00−37сз1110083 0.0 102319
08:00−38ююв0010097 0.0 102419
11:00−33ююв009691 0.0 102431
14:00−30зсз119087 0.0 1024150
17:00−30зсз019494 0.0 102419
20:00−32юв0193100 0.0 102519
3 марта, ср
ср323:00−31юв1191100 0.0 102519
02:00−31ююз0191100 0.0 102419
05:00−30ю0198100 0.1 102319
08:00−30з0199100 0.1 102319
11:00−29зюз1197100 0.3 1021133
14:00−27з1091100 0.1 1019239
17:00−29сз229897 0.1 101726
20:00−35сз1110081 0.0 101719
4 марта, чт
чт423:00−34ссз229990 0.1 101520
02:00−34ссз3397100 0.0 101249
05:00−33ссз4897100 0.1 1010262
08:00−34с61195100 0.3 1007287
11:00−34с81293100 0.5 1005416
14:00−34с91590100 0.2 1002515
17:00−33с111789100 0.3 1001509
20:00−33ссв132086100 0.1 1002515
5 марта, пт
пт523:00−32ссв132088100 0.2 1002576
02:00−31ссв101788100 0.1 1002512
05:00−30ссв51591100 0.3 1003532
08:00−30ссв41493100 0.1 1004513
11:00−28с71489100 0.4 1005789
14:00−27с101590100 0.1 1005871
17:00−26с111590100 0.4 1005986
20:00−27с81594100 0.3 1007839